SV2MJJ Weather Reports


time (UTC)temp
F
wind
direction
speed
knots
gust
knots
rain 1hr
in
rain 24hr
in
rain mn
in
humidity
%
barometer
mb
20260906052404 77 243 1.7 7.0 0.00 0.00 0.00 46 1013.0
20260906052313 77 238 1.7 7.0 0.00 0.00 0.00 46 1012.9
20260906052217 77 225 2.6 7.8 0.00 0.00 0.00 46 1013.0
20260906051906 77 211 2.6 7.8 0.00 0.00 0.00 46 1012.9
20260906051708 76 250 2.6 7.8 0.00 0.00 0.00 46 1013.0
20260906051507 76 237 3.5 7.8 0.00 0.00 0.00 46 1013.0
20260906051403 76 204 3.5 7.8 0.00 0.00 0.00 46 1013.0
20260906051308 76 230 3.5 7.8 0.00 0.00 0.00 46 1013.0
20260906051120 76 194 3.5 8.7 0.00 0.00 0.00 46 1013.0
20260906051015 76 245 3.5 8.7 0.00 0.00 0.00 46 1012.9
20260906050920 75 244 3.5 8.7 0.00 0.00 0.00 47 1012.9
20260906050827 75 246 2.6 8.7 0.00 0.00 0.00 47 1012.9
20260906050107 75 219 2.6 7.8 0.00 0.00 0.00 48 1012.9
20260906045907 74 229 3.5 7.8 0.00 0.00 0.00 49 1012.9
20260906045707 74 210 3.5 7.8 0.00 0.00 0.00 49 1012.9
20260906045505 74 267 4.3 7.8 0.00 0.00 0.00 49 1012.9
20260906045402 74 212 4.3 7.8 0.00 0.00 0.00 50 1012.8
20260906045307 74 236 4.3 7.8 0.00 0.00 0.00 50 1012.9
20260906045108 74 251 3.5 7.8 0.00 0.00 0.00 51 1012.9
20260906044908 73 234 3.5 7.8 0.00 0.00 0.00 51 1012.9
20260906044706 73 223 3.5 7.8 0.00 0.00 0.00 52 1013.0
20260906044539 73 246 3.5 9.6 0.00 0.00 0.00 52 1012.9
20260906044503 73 231 3.5 9.6 0.00 0.00 0.00 52 1012.9
20260906044439 73 221 3.5 9.6 0.00 0.00 0.00 52 1012.9
20260906044022 73 266 4.3 9.6 0.00 0.00 0.00 53 1012.9
20260906043928 73 251 4.3 9.6 0.00 0.00 0.00 53 1012.9
20260906043551 73 223 4.3 9.6 0.00 0.00 0.00 53 1012.9
20260906043521 72 225 4.3 8.7 0.00 0.00 0.00 54 1012.8
20260906042906 72 221 4.3 9.6 0.00 0.00 0.00 54 1012.8
20260906042707 72 238 4.3 9.6 0.00 0.00 0.00 54 1012.8
20260906042519 72 217 4.3 9.6 0.00 0.00 0.00 54 1012.6
20260906042442 72 222 4.3 9.6 0.00 0.00 0.00 54 1012.8
20260906042414 72 240 4.3 9.6 0.00 0.00 0.00 53 1012.7
20260906041906 72 238 4.3 7.0 0.00 0.00 0.00 53 1012.7
20260906041706 72 204 3.5 7.0 0.00 0.00 0.00 53 1012.7
20260906041539 72 244 3.5 7.0 0.00 0.00 0.00 53 1012.9
20260906041503 72 238 3.5 7.8 0.00 0.00 0.00 54 1012.7
20260906041421 72 245 4.3 7.8 0.00 0.00 0.00 54 1012.9
20260906040913 72 227 4.3 7.8 0.00 0.00 0.00 54 1012.8
20260906040729 72 235 4.3 7.8 0.00 0.00 0.00 54 1012.8
20260906040632 72 225 4.3 7.8 0.00 0.00 0.00 54 1012.7
20260906040604 72 219 3.5 7.8 0.00 0.00 0.00 54 1012.8
20260906040108 72 238 3.5 7.0 0.00 0.00 0.00 54 1012.6
20260906035906 72 225 2.6 7.0 0.00 0.00 0.00 54 1012.7
20260906035706 71 231 2.6 7.0 0.00 0.00 0.00 54 1012.6
20260906035542 71 223 1.7 7.0 0.00 0.00 0.00 54 1012.7
20260906035511 71 213 1.7 7.0 0.00 0.00 0.00 54 1012.7
20260906035442 71 221 0.9 7.0 0.00 0.00 0.00 54 1012.7
20260906035034 71 238 1.7 6.1 0.00 0.00 0.00 54 1012.6
20260906034943 71 221 2.6 7.8 0.00 0.00 0.00 54 1012.6
20260906034306 71 263 1.7 7.8 0.00 0.00 0.00 54 1012.6
20260906034106 71 240 1.7 7.8 0.00 0.00 0.00 53 1012.6
20260906034001 72 239 0.9 7.8 0.00 0.00 0.00 53 1012.5
20260906033902 72 234 0.9 4.3 0.00 0.00 0.00 53 1012.5
20260906033813 72 253 0.9 4.3 0.00 0.00 0.00 53 1012.5
20260906033746 72 244 0.9 4.3 0.00 0.00 0.00 53 1012.5
20260906033717 72 246 0.9 4.3 0.00 0.00 0.00 53 1012.5
20260906033629 72 216 1.7 4.3 0.00 0.00 0.00 53 1012.5
20260906032403 72 230 0.9 3.5 0.00 0.00 0.00 53 1012.4
20260906032311 72 247 0.0 3.5 0.00 0.00 0.00 53 1012.5
20260906032214 72 250 0.0 2.6 0.00 0.00 0.00 53 1012.5
20260906032116 72 233 0.0 0.0 0.00 0.00 0.00 53 1012.5
20260906031707 72 261 0.0 0.0 0.00 0.00 0.00 53 1012.4
20260906031514 72 232 0.0 0.0 0.00 0.00 0.00 53 1012.4
20260906031442 72 230 0.0 0.0 0.00 0.00 0.00 53 1012.4
20260906031411 72 228 0.0 0.0 0.00 0.00 0.00 53 1012.4
20260906030907 72 268 0.0 3.5 0.00 0.00 0.00 53 1012.4
20260906030707 72 268 0.0 3.5 0.00 0.00 0.00 53 1012.3
20260906030507 72 267 0.0 3.5 0.00 0.00 0.00 53 1012.3
20260906030403 72 258 0.0 3.5 0.00 0.00 0.00 53 1012.3
20260906030307 72 253 0.0 3.5 0.00 0.00 0.00 53 1012.3
20260906030151 72 254 0.0 3.5 0.00 0.00 0.00 52 1012.3
20260906030054 72 253 0.0 2.6 0.00 0.00 0.00 52 1012.2
20260906025950 73 254 0.9 5.2 0.00 0.00 0.00 52 1012.3
20260906025331 73 248 0.9 5.2 0.00 0.00 0.00 52 1012.2
20260906025236 73 272 0.9 6.1 0.00 0.00 0.00 52 1012.2
20260906025143 72 249 1.7 6.1 0.00 0.00 0.00 52 1012.1
20260906025134 72 249 1.7 6.1 0.00 0.00 0.00 52 1012.1
20260906024736 72 240 1.7 6.1 0.00 0.00 0.00 52 1012.1
20260906024704 72 255 1.7 6.1 0.00 0.00 0.00 51 1012.1
20260906024325 72 261 1.7 6.1 0.00 0.00 0.00 51 1012.1
20260906024218 72 258 0.9 6.1 0.00 0.00 0.00 51 1012.1
20260906023910 73 248 0.0 5.2 0.00 0.00 0.00 50 1012.1
20260906023816 73 253 0.0 2.6 0.00 0.00 0.00 50 1012.1
20260906023742 73 263 0.0 0.0 0.00 0.00 0.00 50 1012.1
20260906023422 73 250 0.0 0.0 0.00 0.00 0.00 50 1012.0
20260906022707 73 250 0.0 0.0 0.00 0.00 0.00 49 1012.0
20260906022506 73 250 0.9 4.3 0.00 0.00 0.00 49 1012.0
20260906022352 73 250 0.9 4.3 0.00 0.00 0.00 49 1012.0
20260906022312 73 250 0.9 4.3 0.00 0.00 0.00 49 1011.9
20260906022207 73 251 0.9 4.3 0.00 0.00 0.00 49 1012.0
20260906022113 73 248 0.9 4.3 0.00 0.00 0.00 49 1012.0
20260906021706 73 250 0.9 4.3 0.00 0.00 0.00 49 1011.9
20260906021507 73 207 0.0 4.3 0.00 0.00 0.00 49 1011.9
20260906021349 73 223 0.0 3.5 0.00 0.00 0.00 49 1011.9
20260906021309 73 229 0.0 3.5 0.00 0.00 0.00 49 1012.0
20260906021104 73 265 0.0 3.5 0.00 0.00 0.00 49 1011.9
20260906020905 74 253 0.9 3.5 0.00 0.00 0.00 48 1011.9
20260906020847 74 233 0.9 3.5 0.00 0.00 0.00 48 1011.9
20260906020706 74 236 0.9 4.3 0.00 0.00 0.00 48 1011.8
20260906020518 74 209 1.7 4.3 0.00 0.00 0.00 48 1011.9
20260906020448 74 208 1.7 4.3 0.00 0.00 0.00 48 1011.9
20260906020418 74 212 1.7 4.3 0.00 0.00 0.00 48 1011.8
20260906020321 74 227 1.7 4.3 0.00 0.00 0.00 48 1011.8
20260906020217 74 221 1.7 4.3 0.00 0.00 0.00 48 1011.9
20260906015538 74 244 1.7 6.1 0.00 0.00 0.00 49 1011.8
20260906015510 74 236 1.7 6.1 0.00 0.00 0.00 48 1011.8
20260906014846 74 197 1.7 6.1 0.00 0.00 0.00 48 1011.8
20260906014654 74 227 1.7 6.1 0.00 0.00 0.00 48 1011.9
20260906014507 74 224 0.9 6.1 0.00 0.00 0.00 48 1011.9
20260906014432 74 227 0.9 6.1 0.00 0.00 0.00 49 1011.9
20260906014405 74 213 0.9 6.1 0.00 0.00 0.00 49 1011.9
20260906013858 74 242 1.7 7.0 0.00 0.00 0.00 48 1012.0
20260906013848 74 227 1.7 7.0 0.00 0.00 0.00 48 1012.0
20260906013652 74 235 1.7 7.0 0.00 0.00 0.00 48 1012.0
20260906013454 74 230 1.7 7.0 0.00 0.00 0.00 48 1011.9
20260906013348 74 206 1.7 7.0 0.00 0.00 0.00 48 1011.9
20260906013309 74 219 0.9 7.0 0.00 0.00 0.00 48 1011.9
20260906013201 74 219 0.9 6.1 0.00 0.00 0.00 48 1011.9
20260906013103 74 238 0.9 6.1 0.00 0.00 0.00 48 1011.9
20260906012651 74 215 0.0 3.5 0.00 0.00 0.00 49 1012.0
20260906012451 74 234 0.9 4.3 0.00 0.00 0.00 49 1012.0
20260906012343 74 198 0.9 6.1 0.00 0.00 0.00 49 1012.0
20260906012250 74 258 0.9 6.1 0.00 0.00 0.00 49 1012.0
20260906012056 74 248 0.9 6.1 0.00 0.00 0.00 50 1012.0
20260906012005 74 259 1.7 6.1 0.00 0.00 0.00 49 1012.0
20260906011953 74 241 1.7 6.1 0.00 0.00 0.00 49 1012.0
20260906011456 74 213 2.6 7.0 0.00 0.00 0.00 49 1011.9
20260906011421 74 238 2.6 7.0 0.00 0.00 0.00 49 1011.9
20260906011357 74 231 2.6 7.0 0.00 0.00 0.00 49 1011.9
20260906011255 74 280 3.5 7.8 0.00 0.00 0.00 48 1011.9
20260906010944 74 263 3.5 7.8 0.00 0.00 0.00 48 1011.8
20260906010442 74 230 3.5 7.8 0.00 0.00 0.00 48 1011.8
20260906010332 74 235 2.6 7.8 0.00 0.00 0.00 48 1011.8
20260906010242 74 267 2.6 7.8 0.00 0.00 0.00 48 1011.8
20260906010042 74 250 2.6 7.0 0.00 0.00 0.00 48 1011.8
20260906005844 74 279 2.6 7.0 0.00 0.00 0.00 48 1011.8
20260906005833 74 248 2.6 7.0 0.00 0.00 0.00 48 1011.8
20260906005641 74 291 2.6 7.0 0.00 0.00 0.00 48 1011.9
20260906005443 74 254 1.7 7.0 0.00 0.00 0.00 48 1011.8
20260906005331 74 247 1.7 7.0 0.00 0.00 0.00 48 1011.8
20260906005248 74 270 1.7 7.0 0.00 0.00 0.00 48 1011.8
20260906005149 74 269 1.7 7.0 0.00 0.00 0.00 49 1011.8
20260906004833 74 278 2.6 7.0 0.00 0.00 0.00 49 1011.8
20260906004637 74 260 2.6 7.0 0.00 0.00 0.00 49 1011.8
20260906004437 74 269 2.6 7.0 0.00 0.00 0.00 50 1011.8
20260906004332 74 250 2.6 7.0 0.00 0.00 0.00 50 1011.8
20260906004238 74 222 2.6 7.0 0.00 0.00 0.00 50 1011.9
20260906004038 74 224 2.6 7.0 0.00 0.00 0.00 50 1011.8
20260906003831 74 259 2.6 7.0 0.00 0.00 0.00 50 1011.8
20260906003635 74 263 2.6 7.0 0.00 0.00 0.00 50 1011.9
20260906003453 74 259 2.6 6.1 0.00 0.00 0.00 50 1011.9
20260906003422 74 267 2.6 6.1 0.00 0.00 0.00 50 1011.9
20260906003351 74 285 2.6 6.1 0.00 0.00 0.00 50 1011.9
20260906003253 74 300 3.5 6.1 0.00 0.00 0.00 50 1011.8
20260906002944 74 246 3.5 6.1 0.00 0.00 0.00 50 1011.9
20260906002435 74 217 3.5 7.0 0.00 0.00 0.00 50 1011.9
20260906002342 74 206 3.5 7.0 0.00 0.00 0.00 50 1011.8
20260906002306 74 223 3.5 7.0 0.00 0.00 0.00 50 1011.9
20260906002202 74 253 3.5 7.0 0.00 0.00 0.00 50 1011.9
20260906002104 74 235 3.5 7.0 0.00 0.00 0.00 50 1012.0
20260906002009 74 242 2.6 7.0 0.00 0.00 0.00 50 1012.1
20260906001642 74 253 0.9 6.1 0.00 0.00 0.00 50 1012.1
20260906000850 75 248 0.0 3.5 0.00 0.00 0.00 49 1012.0
20260906000632 75 265 0.0 3.5 0.00 0.00 0.00 49 1012.0
20260906000433 75 256 0.9 5.2 0.00 0.00 0.00 49 1012.0
20260906000333 75 251 0.9 5.2 0.00 0.00 0.00 49 1012.0
20260906000233 75 262 1.7 5.2 0.00 0.00 0.00 49 1011.9
20260906000030 75 278 1.7 5.2 0.00 0.00 0.00 48 1011.9
20260905235830 75 238 1.7 5.2 0.00 0.00 0.00 48 1011.9
20260905235627 75 235 1.7 5.2 0.00 0.00 0.00 48 1011.9
20260905235428 75 227 0.9 5.2 0.00 0.00 0.00 48 1011.9
20260905235330 75 229 0.9 5.2 0.00 0.00 0.00 48 1011.9
20260905235248 75 232 0.9 5.2 0.00 0.00 0.00 48 1011.9
20260905235144 75 251 0.9 7.0 0.00 0.00 0.00 48 1012.1
20260905234835 75 219 1.7 7.0 0.00 0.00 0.00 48 1012.0
20260905234738 75 248 1.7 7.0 0.00 0.00 0.00 48 1012.0
20260905234645 75 250 2.6 7.0 0.00 0.00 0.00 48 1011.9
20260905234618 75 234 2.6 7.0 0.00 0.00 0.00 48 1011.9
20260905233841 75 216 1.7 4.3 0.00 0.00 0.00 48 1011.9
20260905233821 75 205 1.7 4.3 0.00 0.00 0.00 48 1011.8
20260905233621 75 231 1.7 6.1 0.00 0.00 0.00 48 1011.9
20260905233418 75 236 1.7 6.1 0.00 0.00 0.00 48 1011.9
20260905233331 75 238 1.7 7.0 0.00 0.00 0.00 49 1011.9
20260905233219 75 230 2.6 7.0 0.00 0.00 0.00 49 1011.9
20260905233015 75 245 2.6 7.0 0.00 0.00 0.00 49 1012.0
20260905232844 75 235 2.6 7.0 0.00 0.00 0.00 49 1012.0
20260905232826 75 243 2.6 7.0 0.00 0.00 0.00 49 1012.0
20260905232725 75 272 2.6 7.0 0.00 0.00 0.00 49 1012.0
20260905232333 75 228 1.7 6.1 0.00 0.00 0.00 49 1012.0
20260905232221 75 261 1.7 6.1 0.00 0.00 0.00 48 1012.0
20260905232119 75 268 1.7 6.1 0.00 0.00 0.00 48 1012.0
20260905232038 75 241 1.7 6.1 0.00 0.00 0.00 48 1012.0
20260905231657 75 248 1.7 6.1 0.00 0.00 0.00 48 1011.9
20260905231603 75 242 1.7 6.1 0.00 0.00 0.00 48 1012.0
20260905231209 75 269 1.7 7.0 0.00 0.00 0.00 48 1012.0
20260905231109 76 267 1.7 7.0 0.00 0.00 0.00 47 1011.9
20260905231026 76 264 1.7 7.0 0.00 0.00 0.00 47 1012.0
20260905231001 76 277 1.7 7.0 0.00 0.00 0.00 47 1011.9
20260905230603 76 231 1.7 7.0 0.00 0.00 0.00 47 1012.0
20260905230232 76 247 1.7 6.1 0.00 0.00 0.00 47 1012.0
20260905230132 76 223 1.7 5.2 0.00 0.00 0.00 47 1012.0
20260905225821 76 250 1.7 5.2 0.00 0.00 0.00 47 1012.1
20260905225722 76 257 1.7 4.3 0.00 0.00 0.00 46 1012.1
20260905225627 76 265 2.6 6.1 0.00 0.00 0.00 46 1012.0
20260905225606 76 228 2.6 6.1 0.00 0.00 0.00 46 1012.0
20260905224832 76 218 2.6 6.1 0.00 0.00 0.00 47 1012.0
20260905224807 76 247 2.6 6.1 0.00 0.00 0.00 47 1012.0
20260905224613 76 207 2.6 6.1 0.00 0.00 0.00 47 1012.0
20260905224407 76 234 2.6 6.1 0.00 0.00 0.00 47 1012.0
20260905224332 76 219 2.6 6.1 0.00 0.00 0.00 47 1012.0
20260905224208 76 234 1.7 6.1 0.00 0.00 0.00 47 1012.0
20260905224009 76 203 1.7 6.1 0.00 0.00 0.00 47 1012.0
20260905223832 76 266 2.6 6.1 0.00 0.00 0.00 46 1012.0
20260905223808 76 249 2.6 5.2 0.00 0.00 0.00 46 1012.0
20260905223608 76 257 2.6 5.2 0.00 0.00 0.00 46 1012.1
20260905223436 77 260 2.6 5.2 0.00 0.00 0.00 46 1012.0
20260905223413 77 222 2.6 5.2 0.00 0.00 0.00 46 1012.0
20260905223334 77 261 2.6 5.2 0.00 0.00 0.00 45 1012.1
20260905223230 77 257 2.6 6.1 0.00 0.00 0.00 45 1012.0
20260905222918 77 266 2.6 6.1 0.00 0.00 0.00 45 1012.0
20260905222816 77 271 2.6 6.1 0.00 0.00 0.00 45 1012.0
20260905222457 77 234 2.6 6.1 0.00 0.00 0.00 45 1012.0
20260905222006 77 236 2.6 5.2 0.00 0.00 0.00 44 1012.1
20260905221834 77 186 2.6 5.2 0.00 0.00 0.00 44 1012.0
20260905221807 77 238 2.6 5.2 0.00 0.00 0.00 44 1012.1
20260905221605 77 211 2.6 5.2 0.00 0.00 0.00 44 1012.1
20260905221407 77 217 2.6 5.2 0.00 0.00 0.00 44 1012.1
20260905221332 77 237 2.6 5.2 0.00 0.00 0.00 44 1012.1
20260905221208 77 249 2.6 6.1 0.00 0.00 0.00 44 1012.0
20260905221008 77 194 2.6 6.1 0.00 0.00 0.00 44 1012.0
20260905220832 77 243 2.6 6.1 0.00 0.00 0.00 44 1012.0
20260905220808 77 214 2.6 6.1 0.00 0.00 0.00 44 1012.0
20260905220657 77 248 3.5 7.8 0.00 0.00 0.00 44 1012.1
20260905220559 77 205 3.5 7.8 0.00 0.00 0.00 44 1012.0
20260905220206 77 238 3.5 7.8 0.00 0.00 0.00 44 1012.0
20260905220008 77 225 3.5 7.8 0.00 0.00 0.00 44 1011.9
20260905215834 77 225 3.5 7.8 0.00 0.00 0.00 44 1011.9
20260905215808 77 215 3.5 7.8 0.00 0.00 0.00 44 1011.9
20260905215607 77 232 2.6 7.8 0.00 0.00 0.00 44 1012.0
20260905215407 77 209 2.6 7.0 0.00 0.00 0.00 44 1012.0
20260905215331 78 234 2.6 7.0 0.00 0.00 0.00 44 1012.0
20260905215206 78 223 2.6 7.0 0.00 0.00 0.00 44 1012.1
20260905215007 78 208 2.6 7.0 0.00 0.00 0.00 44 1012.1
20260905214834 78 249 2.6 7.0 0.00 0.00 0.00 44 1012.0
20260905214809 78 259 2.6 7.8 0.00 0.00 0.00 44 1012.0
20260905214635 78 265 3.5 7.8 0.00 0.00 0.00 44 1012.0
20260905214541 78 269 3.5 7.8 0.00 0.00 0.00 44 1011.9
20260905214521 78 245 3.5 7.8 0.00 0.00 0.00 44 1011.9
20260905214123 78 201 3.5 7.8 0.00 0.00 0.00 44 1011.9
20260905213808 78 230 2.6 7.0 0.00 0.00 0.00 44 1012.0
20260905213617 78 232 2.6 7.0 0.00 0.00 0.00 44 1012.0
20260905213521 78 243 2.6 7.0 0.00 0.00 0.00 45 1012.2
20260905213501 77 209 2.6 7.0 0.00 0.00 0.00 45 1012.2
20260905213021 77 239 1.7 7.0 0.00 0.00 0.00 45 1012.2
20260905212940 77 205 1.7 7.0 0.00 0.00 0.00 45 1012.3
20260905212919 77 229 1.7 7.0 0.00 0.00 0.00 45 1012.3
20260905212826 78 255 1.7 7.0 0.00 0.00 0.00 45 1012.3
20260905212500 78 233 0.9 7.0 0.00 0.00 0.00 45 1012.2
20260905212421 78 274 1.7 5.2 0.00 0.00 0.00 45 1012.3
20260905212037 78 224 1.7 5.2 0.00 0.00 0.00 44 1012.3
20260905212017 78 236 1.7 5.2 0.00 0.00 0.00 44 1012.3
20260905211332 78 192 2.6 7.0 0.00 0.00 0.00 44 1012.1
20260905211207 78 223 3.5 7.0 0.00 0.00 0.00 44 1012.0
20260905211009 78 207 3.5 7.0 0.00 0.00 0.00 44 1012.0
20260905210809 78 193 4.3 7.0 0.00 0.00 0.00 44 1012.1
20260905210636 78 196 4.3 7.0 0.00 0.00 0.00 43 1012.1
20260905210540 78 196 3.5 6.1 0.00 0.00 0.00 44 1012.2
20260905210521 78 198 3.5 6.1 0.00 0.00 0.00 44 1012.2
20260905210127 79 181 1.7 6.1 0.00 0.00 0.00 44 1012.3
20260905205808 79 192 0.9 5.2 0.00 0.00 0.00 44 1012.3
20260905205607 79 177 0.9 5.2 0.00 0.00 0.00 44 1012.3
20260905205407 79 193 0.0 4.3 0.00 0.00 0.00 44 1012.2
20260905205330 79 211 0.0 0.0 0.00 0.00 0.00 44 1012.2
20260905205213 79 242 0.0 0.0 0.00 0.00 0.00 44 1012.2
20260905205117 79 209 0.0 0.9 0.00 0.00 0.00 44 1012.3
20260905205038 79 230 0.0 0.9 0.00 0.00 0.00 44 1012.2
20260905204611 79 199 0.9 7.0 0.00 0.00 0.00 44 1012.1
20260905204407 79 232 0.9 7.0 0.00 0.00 0.00 44 1012.1
20260905204332 79 232 0.9 7.0 0.00 0.00 0.00 44 1012.1
20260905204218 79 232 0.9 7.0 0.00 0.00 0.00 44 1012.1
20260905204115 79 201 0.9 7.0 0.00 0.00 0.00 44 1012.1
20260905204036 79 230 1.7 7.0 0.00 0.00 0.00 43 1012.1
20260905203613 80 241 0.9 7.8 0.00 0.00 0.00 43 1012.1
20260905203511 80 211 1.7 7.8 0.00 0.00 0.00 43 1012.0
20260905203453 80 218 1.7 7.8 0.00 0.00 0.00 43 1012.0
20260905203004 80 246 2.6 7.8 0.00 0.00 0.00 43 1011.9
20260905202832 80 242 3.5 7.8 0.00 0.00 0.00 43 1011.9
20260905202803 80 243 3.5 7.8 0.00 0.00 0.00 43 1011.9
20260905202600 80 213 3.5 7.0 0.00 0.00 0.00 43 1011.9
20260905202359 80 209 2.6 7.0 0.00 0.00 0.00 43 1012.0
20260905202330 80 218 2.6 7.0 0.00 0.00 0.00 43 1011.9
20260905202156 80 201 2.6 7.0 0.00 0.00 0.00 43 1011.9
20260905201956 80 233 2.6 7.0 0.00 0.00 0.00 43 1011.9
20260905201855 80 223 2.6 7.0 0.00 0.00 0.00 43 1011.9
20260905201829 80 223 2.6 7.0 0.00 0.00 0.00 43 1012.0
20260905201736 80 234 2.6 7.8 0.00 0.00 0.00 43 1011.9
20260905201640 80 221 3.5 7.8 0.00 0.00 0.00 43 1011.9
20260905201623 80 220 3.5 7.8 0.00 0.00 0.00 43 1011.9
20260905200941 80 206 5.2 8.7 0.00 0.00 0.00 43 1012.0
20260905200913 80 238 5.2 8.7 0.00 0.00 0.00 43 1012.0
20260905200826 80 212 5.2 8.7 0.00 0.00 0.00 43 1012.0
20260905200500 80 239 5.2 8.7 0.00 0.00 0.00 43 1012.0
20260905200407 80 236 5.2 7.8 0.00 0.00 0.00 43 1011.9
20260905200310 80 233 4.3 7.8 0.00 0.00 0.00 43 1012.0
20260905200233 80 217 4.3 7.8 0.00 0.00 0.00 43 1011.9
20260905195555 80 251 3.5 7.8 0.00 0.00 0.00 43 1011.9
20260905195148 80 265 3.5 7.8 0.00 0.00 0.00 43 1011.9
20260905194946 80 227 3.5 7.8 0.00 0.00 0.00 43 1011.9
20260905194832 80 214 3.5 7.8 0.00 0.00 0.00 43 1011.9
20260905194746 80 245 3.5 7.8 0.00 0.00 0.00 43 1011.8
20260905194604 80 261 4.3 8.7 0.00 0.00 0.00 43 1011.8
20260905194508 80 255 4.3 8.7 0.00 0.00 0.00 43 1011.9
20260905194454 80 252 4.3 8.7 0.00 0.00 0.00 43 1011.9
20260905194406 80 236 4.3 8.7 0.00 0.00 0.00 43 1011.9
20260905194029 80 244 4.3 9.6 0.00 0.00 0.00 43 1011.8
20260905193548 80 236 4.3 9.6 0.00 0.00 0.00 43 1011.9
20260905193347 80 232 4.3 9.6 0.00 0.00 0.00 43 1011.9
20260905193331 80 216 4.3 9.6 0.00 0.00 0.00 43 1011.9
20260905193146 80 203 4.3 9.6 0.00 0.00 0.00 43 1011.8
20260905192948 80 200 4.3 9.6 0.00 0.00 0.00 43 1011.9
20260905192832 80 239 3.5 8.7 0.00 0.00 0.00 43 1011.8
20260905192751 80 259 3.5 8.7 0.00 0.00 0.00 43 1011.8
20260905192656 80 244 3.5 8.7 0.00 0.00 0.00 43 1011.9
20260905192331 80 264 3.5 8.7 0.00 0.00 0.00 43 1011.8
20260905192149 80 247 3.5 8.7 0.00 0.00 0.00 43 1011.8
20260905191936 80 236 3.5 8.7 0.00 0.00 0.00 43 1011.8
20260905191830 80 209 3.5 8.7 0.00 0.00 0.00 43 1011.9
20260905191738 80 193 3.5 8.7 0.00 0.00 0.00 43 1011.9
20260905191537 80 251 3.5 7.8 0.00 0.00 0.00 43 1011.9
20260905191341 80 235 3.5 7.8 0.00 0.00 0.00 43 1011.9
20260905191331 80 230 3.5 7.8 0.00 0.00 0.00 43 1011.9
20260905191137 80 199 3.5 7.8 0.00 0.00 0.00 43 1011.9
20260905190935 81 238 3.5 7.0 0.00 0.00 0.00 43 1011.9
20260905190835 81 240 3.5 7.0 0.00 0.00 0.00 43 1011.9
20260905190755 81 244 3.5 7.8 0.00 0.00 0.00 43 1011.9
20260905190703 81 199 4.3 7.8 0.00 0.00 0.00 43 1011.9
20260905190600 81 196 4.3 7.8 0.00 0.00 0.00 43 1011.9
20260905190247 81 213 4.3 7.8 0.00 0.00 0.00 43 1011.9
20260905190148 81 221 5.2 7.8 0.00 0.00 0.00 43 1011.8
20260905190120 81 217 5.2 8.7 0.00 0.00 0.00 43 1011.8
20260905190054 81 236 5.2 8.7 0.00 0.00 0.00 43 1011.9
20260905185444 81 242 5.2 9.6 0.00 0.00 0.00 43 1011.9
20260905184935 81 207 5.2 9.6 0.00 0.00 0.00 43 1011.7
20260905184831 81 241 5.2 9.6 0.00 0.00 0.00 43 1011.8
20260905184736 81 221 5.2 9.6 0.00 0.00 0.00 43 1011.7
20260905184536 81 255 5.2 9.6 0.00 0.00 0.00 43 1011.8
20260905184334 81 232 5.2 9.6 0.00 0.00 0.00 44 1011.7
20260905184135 81 267 5.2 9.6 0.00 0.00 0.00 44 1011.7
20260905183935 81 238 5.2 9.6 0.00 0.00 0.00 44 1011.7
20260905183832 81 232 5.2 9.6 0.00 0.00 0.00 44 1011.7
20260905183737 81 217 5.2 9.6 0.00 0.00 0.00 44 1011.6
20260905183535 81 241 5.2 9.6 0.00 0.00 0.00 44 1011.6
20260905183335 81 242 4.3 9.6 0.00 0.00 0.00 44 1011.7
20260905183212 81 240 4.3 9.6 0.00 0.00 0.00 44 1011.6
20260905183109 81 240 4.3 9.6 0.00 0.00 0.00 44 1011.6
20260905182734 81 268 4.3 9.6 0.00 0.00 0.00 44 1011.6
20260905182535 81 232 4.3 9.6 0.00 0.00 0.00 44 1011.6
20260905182334 82 220 4.3 9.6 0.00 0.00 0.00 44 1011.6
20260905182136 82 236 4.3 9.6 0.00 0.00 0.00 44 1011.6
20260905181935 82 205 4.3 9.6 0.00 0.00 0.00 44 1011.5
20260905181833 82 207 4.3 9.6 0.00 0.00 0.00 44 1011.5
20260905181735 82 250 4.3 9.6 0.00 0.00 0.00 44 1011.6
20260905181533 82 218 4.3 9.6 0.00 0.00 0.00 44 1011.6
20260905181335 82 217 5.2 9.6 0.00 0.00 0.00 44 1011.5
20260905181146 82 198 5.2 9.6 0.00 0.00 0.00 44 1011.5
20260905181046 82 233 5.2 9.6 0.00 0.00 0.00 44 1011.5
20260905181014 82 211 5.2 9.6 0.00 0.00 0.00 44 1011.5
20260905180628 82 225 5.2 8.7 0.00 0.00 0.00 44 1011.5
20260905180522 82 194 5.2 8.7 0.00 0.00 0.00 44 1011.5
20260905180115 83 262 4.3 7.8 0.00 0.00 0.00 44 1011.5
20260905175736 83 263 4.3 7.8 0.00 0.00 0.00 44 1011.4
20260905175536 83 230 4.3 7.8 0.00 0.00 0.00 44 1011.4
20260905175335 83 242 4.3 8.7 0.00 0.00 0.00 44 1011.4
20260905175153 83 239 4.3 8.7 0.00 0.00 0.00 44 1011.4
20260905175054 83 234 4.3 8.7 0.00 0.00 0.00 44 1011.4
20260905175019 83 228 4.3 8.7 0.00 0.00 0.00 44 1011.4
20260905174946 83 225 4.3 8.7 0.00 0.00 0.00 44 1011.4
20260905174334 83 235 2.6 7.8 0.00 0.00 0.00 44 1011.3
20260905174144 83 228 1.7 7.8 0.00 0.00 0.00 44 1011.3
20260905174048 83 204 1.7 7.0 0.00 0.00 0.00 44 1011.3
20260905174016 83 204 0.9 6.1 0.00 0.00 0.00 44 1011.3
20260905173535 83 236 1.7 6.1 0.00 0.00 0.00 44 1011.3
20260905173336 84 211 1.7 6.1 0.00 0.00 0.00 44 1011.3
20260905173135 84 224 1.7 6.1 0.00 0.00 0.00 44 1011.2
20260905172935 84 254 2.6 7.0 0.00 0.00 0.00 44 1011.2
20260905172832 84 231 2.6 7.0 0.00 0.00 0.00 44 1011.2
20260905172734 84 254 2.6 7.0 0.00 0.00 0.00 44 1011.2
20260905172547 84 201 2.6 7.0 0.00 0.00 0.00 44 1011.2
20260905172439 84 230 2.6 7.0 0.00 0.00 0.00 44 1011.2
20260905171936 84 201 2.6 7.0 0.00 0.00 0.00 44 1011.1
20260905171831 84 221 1.7 6.1 0.00 0.00 0.00 44 1011.1
20260905171737 84 260 1.7 6.1 0.00 0.00 0.00 45 1011.1
20260905171534 85 203 1.7 6.1 0.00 0.00 0.00 45 1011.1
20260905171336 85 244 0.9 6.1 0.00 0.00 0.00 44 1011.0
20260905171135 85 266 0.9 6.1 0.00 0.00 0.00 45 1011.0
20260905170935 85 261 0.9 6.1 0.00 0.00 0.00 45 1011.1
20260905170826 85 254 0.9 6.1 0.00 0.00 0.00 45 1011.0
20260905170735 85 259 0.9 6.1 0.00 0.00 0.00 45 1011.0
20260905170536 85 266 0.9 3.5 0.00 0.00 0.00 45 1011.0
20260905170337 85 255 0.9 3.5 0.00 0.00 0.00 44 1011.0
20260905170321 85 257 0.9 3.5 0.00 0.00 0.00 44 1011.0
20260905170134 86 280 0.9 3.5 0.00 0.00 0.00 44 1011.0
20260905165934 86 286 0.9 2.6 0.00 0.00 0.00 44 1011.0
20260905165818 86 288 0.0 2.6 0.00 0.00 0.00 44 1010.9
20260905165738 86 275 0.0 2.6 0.00 0.00 0.00 44 1010.9
20260905165641 86 281 0.0 2.6 0.00 0.00 0.00 43 1010.9
20260905165534 87 281 0.0 2.6 0.00 0.00 0.00 43 1011.0
20260905165147 87 281 0.0 2.6 0.00 0.00 0.00 43 1011.0
20260905165111 87 281 0.0 2.6 0.00 0.00 0.00 43 1011.0
20260905164328 87 271 0.0 0.0 0.00 0.00 0.00 42 1010.9
20260905164239 88 271 0.0 0.0 0.00 0.00 0.00 41 1010.8
20260905163817 88 288 0.0 0.0 0.00 0.00 0.00 41 1010.9
20260905163733 88 288 0.0 3.5 0.00 0.00 0.00 41 1010.9
20260905163634 89 295 0.0 4.3 0.00 0.00 0.00 40 1010.9
20260905163317 89 287 0.0 4.3 0.00 0.00 0.00 40 1010.9
20260905163130 89 296 0.0 4.3 0.00 0.00 0.00 40 1010.9
20260905162959 90 321 0.0 4.3 0.00 0.00 0.00 39 1010.9
20260905162922 90 302 0.0 4.3 0.00 0.00 0.00 39 1010.9
20260905162852 90 296 0.0 4.3 0.00 0.00 0.00 39 1010.9
20260905162805 91 332 0.0 1.7 0.00 0.00 0.00 38 1010.9
20260905162707 91 347 0.0 1.7 0.00 0.00 0.00 38 1010.9
20260905162408 91 347 0.0 1.7 0.00 0.00 0.00 38 1010.9
20260905162029 91 351 0.0 1.7 0.00 0.00 0.00 38 1010.9
20260905162006 91 351 0.0 1.7 0.00 0.00 0.00 38 1010.9
20260905161920 91 331 0.0 1.7 0.00 0.00 0.00 38 1010.9
20260905161605 92 351 0.0 0.9 0.00 0.00 0.00 38 1010.9
20260905161525 92 336 0.0 0.9 0.00 0.00 0.00 38 1010.9
20260905161432 92 30 0.0 0.0 0.00 0.00 0.00 38 1010.9
20260905161125 91 36 0.0 0.9 0.00 0.00 0.00 38 1011.0
20260905160125 92 15 0.9 4.3 0.00 0.00 0.00 37 1011.0
20260905155924 92 15 0.9 4.3 0.00 0.00 0.00 37 1011.0
20260905155814 92 338 0.9 5.2 0.00 0.00 0.00 37 1011.0
20260905155728 92 324 0.9 5.2 0.00 0.00 0.00 37 1011.0
20260905155633 92 332 0.9 5.2 0.00 0.00 0.00 37 1011.0
20260905155539 92 1 0.9 5.2 0.00 0.00 0.00 37 1010.9
20260905155201 92 351 0.9 5.2 0.00 0.00 0.00 36 1011.0
20260905155104 93 338 0.0 5.2 0.00 0.00 0.00 36 1011.0
20260905154724 93 351 0.0 2.6 0.00 0.00 0.00 36 1010.9
20260905154528 93 24 0.0 2.6 0.00 0.00 0.00 36 1011.0
20260905154426 93 51 0.0 2.6 0.00 0.00 0.00 36 1011.0
20260905154409 93 33 0.0 2.6 0.00 0.00 0.00 36 1011.0
20260905154316 93 5 0.0 2.6 0.00 0.00 0.00 36 1010.9
20260905154225 93 325 0.0 3.5 0.00 0.00 0.00 36 1011.0
20260905154150 93 29 0.0 3.5 0.00 0.00 0.00 36 1011.0
20260905154130 93 28 0.0 3.5 0.00 0.00 0.00 36 1011.0
20260905154034 94 38 0.0 4.3 0.00 0.00 0.00 36 1010.9
20260905153431 94 22 0.0 4.3 0.00 0.00 0.00 35 1010.9
20260905153101 94 351 0.0 4.3 0.00 0.00 0.00 35 1010.9
20260905152733 94 351 0.0 4.3 0.00 0.00 0.00 34 1010.9
20260905152425 94 11 0.0 1.7 0.00 0.00 0.00 34 1011.0
20260905151918 95 33 0.0 1.7 0.00 0.00 0.00 34 1011.0
20260905151813 95 35 0.0 0.0 0.00 0.00 0.00 34 1011.0
20260905151719 95 59 0.0 0.0 0.00 0.00 0.00 34 1010.9
20260905151519 95 59 0.0 0.0 0.00 0.00 0.00 33 1010.9
20260905151316 95 31 0.0 1.7 0.00 0.00 0.00 33 1011.0
20260905151224 95 30 0.0 1.7 0.00 0.00 0.00 33 1011.0
20260905151128 95 15 0.0 1.7 0.00 0.00 0.00 33 1011.0
20260905151056 95 33 0.0 1.7 0.00 0.00 0.00 33 1011.0
20260905150313 95 35 0.0 1.7 0.00 0.00 0.00 32 1010.9
20260905150220 95 88 0.0 1.7 0.00 0.00 0.00 32 1010.9
20260905145805 95 37 0.0 3.5 0.00 0.00 0.00 32 1011.0
20260905145718 94 51 0.0 3.5 0.00 0.00 0.00 33 1011.0
20260905145517 95 42 0.0 3.5 0.00 0.00 0.00 33 1011.0
20260905145306 95 30 0.0 3.5 0.00 0.00 0.00 32 1011.1
20260905145146 95 24 0.9 3.5 0.00 0.00 0.00 32 1011.0
20260905145043 95 47 0.0 4.3 0.00 0.00 0.00 32 1011.1
20260905144716 95 103 0.0 4.3 0.00 0.00 0.00 32 1011.0
20260905144517 95 84 0.0 4.3 0.00 0.00 0.00 32 1011.0
20260905144304 95 26 0.0 4.3 0.00 0.00 0.00 31 1011.0
20260905144117 95 52 0.0 4.3 0.00 0.00 0.00 31 1011.0
20260905143916 95 38 0.0 3.5 0.00 0.00 0.00 30 1011.0
20260905143803 95 63 0.0 3.5 0.00 0.00 0.00 30 1011.0
20260905143718 95 62 0.0 3.5 0.00 0.00 0.00 30 1011.1
20260905143515 95 18 0.0 3.5 0.00 0.00 0.00 30 1011.0
20260905143304 95 33 0.0 3.5 0.00 0.00 0.00 30 1011.1
20260905143118 95 36 0.0 3.5 0.00 0.00 0.00 30 1011.1
20260905142913 95 17 0.0 2.6 0.00 0.00 0.00 28 1011.2
20260905142805 95 40 0.0 2.6 0.00 0.00 0.00 28 1011.2
20260905142711 95 30 0.0 2.6 0.00 0.00 0.00 28 1011.2
20260905142618 96 30 0.0 5.2 0.00 0.00 0.00 28 1011.2
20260905142307 95 65 0.9 7.0 0.00 0.00 0.00 28 1011.2
20260905142114 95 111 0.9 7.0 0.00 0.00 0.00 28 1011.0
20260905141919 95 67 0.9 7.0 0.00 0.00 0.00 28 1011.2
20260905141848 95 78 0.9 7.0 0.00 0.00 0.00 28 1011.1
20260905141817 96 112 0.9 7.0 0.00 0.00 0.00 28 1011.2
20260905141327 96 83 0.0 3.5 0.00 0.00 0.00 27 1011.2
20260905141317 96 75 0.0 3.5 0.00 0.00 0.00 27 1011.2
20260905141111 95 129 0.0 3.5 0.00 0.00 0.00 26 1011.2
20260905140913 95 64 0.0 3.5 0.00 0.00 0.00 26 1011.2
20260905140803 95 138 0.0 3.5 0.00 0.00 0.00 26 1011.2
20260905140712 95 84 0.0 4.3 0.00 0.00 0.00 27 1011.1
20260905140513 95 119 0.0 4.3 0.00 0.00 0.00 26 1011.1
20260905140307 95 124 0.0 4.3 0.00 0.00 0.00 26 1011.1
20260905140106 96 119 0.9 5.2 0.00 0.00 0.00 26 1011.2
20260905135947 96 38 0.9 5.2 0.00 0.00 0.00 26 1011.3
20260905135916 96 124 0.0 5.2 0.00 0.00 0.00 26 1011.4
20260905135838 96 88 0.0 5.2 0.00 0.00 0.00 27 1011.3
20260905135753 95 72 0.0 5.2 0.00 0.00 0.00 27 1011.4
20260905135447 95 38 0.0 5.2 0.00 0.00 0.00 27 1011.3
20260905135348 95 136 0.0 2.6 0.00 0.00 0.00 27 1011.3
20260905134713 95 92 0.0 2.6 0.00 0.00 0.00 28 1011.3
20260905134618 95 26 0.0 4.3 0.00 0.00 0.00 28 1011.3
20260905134519 95 109 0.0 4.3 0.00 0.00 0.00 27 1011.4
20260905134125 95 117 0.0 4.3 0.00 0.00 0.00 27 1011.4
20260905134022 95 93 0.0 4.3 0.00 0.00 0.00 27 1011.4
20260905133953 95 108 0.0 4.3 0.00 0.00 0.00 27 1011.5
20260905133923 95 113 0.0 4.3 0.00 0.00 0.00 27 1011.5
20260905133838 95 78 0.0 2.6 0.00 0.00 0.00 27 1011.5
20260905133214 95 142 0.0 2.6 0.00 0.00 0.00 27 1011.6
20260905133119 95 51 0.0 2.6 0.00 0.00 0.00 27 1011.6
20260905133052 94 100 0.0 2.6 0.00 0.00 0.00 28 1011.6
20260905132312 94 42 0.0 6.1 0.00 0.00 0.00 29 1011.6
20260905132210 94 79 0.9 7.0 0.00 0.00 0.00 29 1011.6
20260905131805 93 113 1.7 7.0 0.00 0.00 0.00 28 1011.5
20260905131710 93 110 1.7 7.0 0.00 0.00 0.00 28 1011.5
20260905131507 93 116 2.6 7.0 0.00 0.00 0.00 28 1011.6
20260905131314 93 191 2.6 7.0 0.00 0.00 0.00 28 1011.6
20260905131308 93 191 2.6 7.0 0.00 0.00 0.00 28 1011.6
20260905131112 93 164 2.6 6.1 0.00 0.00 0.00 28 1011.7
20260905131015 94 161 1.7 6.1 0.00 0.00 0.00 28 1011.7
20260905130947 94 149 1.7 6.1 0.00 0.00 0.00 28 1011.8
20260905130312 94 163 0.9 6.1 0.00 0.00 0.00 28 1011.8
20260905130306 94 163 0.9 6.1 0.00 0.00 0.00 28 1011.8
20260905130104 94 122 0.0 6.1 0.00 0.00 0.00 28 1011.8
20260905125904 94 122 0.0 5.2 0.00 0.00 0.00 29 1011.9
20260905125803 94 51 0.0 5.2 0.00 0.00 0.00 28 1011.8
20260905125701 94 78 0.0 5.2 0.00 0.00 0.00 28 1011.9
20260905125500 94 111 0.9 5.2 0.00 0.00 0.00 28 1011.9
20260905125310 94 104 0.9 5.2 0.00 0.00 0.00 28 1011.9
20260905125300 94 103 0.9 5.2 0.00 0.00 0.00 28 1011.9
20260905125103 93 70 0.9 5.2 0.00 0.00 0.00 28 1012.1
20260905125012 93 128 0.9 5.2 0.00 0.00 0.00 28 1012.0
20260905124948 94 128 0.9 5.2 0.00 0.00 0.00 28 1012.0
20260905124607 94 148 0.9 5.2 0.00 0.00 0.00 27 1012.0
20260905124514 94 149 0.9 5.2 0.00 0.00 0.00 27 1012.1
20260905124053 94 80 0.0 5.2 0.00 0.00 0.00 27 1012.0
20260905123852 94 28 0.9 6.1 0.00 0.00 0.00 28 1012.0
20260905123803 94 65 0.9 6.1 0.00 0.00 0.00 28 1012.0
20260905123651 94 77 0.9 6.1 0.00 0.00 0.00 28 1011.9
20260905123448 94 28 0.9 6.1 0.00 0.00 0.00 28 1011.9
20260905123304 94 65 0.9 6.1 0.00 0.00 0.00 28 1012.0
20260905123250 94 65 0.9 6.1 0.00 0.00 0.00 28 1012.0
20260905123042 94 62 0.9 6.1 0.00 0.00 0.00 28 1012.2
20260905122857 94 123 0.0 6.1 0.00 0.00 0.00 28 1012.2
20260905122835 94 163 0.0 3.5 0.00 0.00 0.00 28 1012.3
20260905122754 94 159 0.0 3.5 0.00 0.00 0.00 28 1012.1
20260905122704 94 66 0.0 3.5 0.00 0.00 0.00 28 1012.2
20260905122617 94 66 0.0 3.5 0.00 0.00 0.00 28 1012.2
20260905122254 94 76 0.0 3.5 0.00 0.00 0.00 28 1012.2
20260905122200 93 109 0.0 3.5 0.00 0.00 0.00 29 1012.4
20260905122141 93 60 0.0 2.6 0.00 0.00 0.00 29 1012.4
20260905121807 93 57 0.0 2.6 0.00 0.00 0.00 29 1012.4
20260905121503 93 78 0.0 3.5 0.00 0.00 0.00 29 1012.5
20260905121401 93 17 0.0 3.5 0.00 0.00 0.00 29 1012.5
20260905120747 93 31 0.0 3.5 0.00 0.00 0.00 29 1012.5
20260905120656 93 24 0.0 3.5 0.00 0.00 0.00 29 1012.5
20260905120614 93 37 0.0 2.6 0.00 0.00 0.00 29 1012.5
20260905115834 93 61 0.0 1.7 0.00 0.00 0.00 30 1012.6
20260905115804 93 47 0.0 3.5 0.00 0.00 0.00 30 1012.6
20260905115640 93 342 0.0 3.5 0.00 0.00 0.00 30 1012.6
20260905115536 93 331 0.0 3.5 0.00 0.00 0.00 30 1012.6
20260905115453 93 17 0.0 3.5 0.00 0.00 0.00 30 1012.6
20260905115436 93 32 0.0 3.5 0.00 0.00 0.00 30 1012.6
20260905115029 93 42 0.9 7.0 0.00 0.00 0.00 30 1012.6
20260905114633 93 77 0.9 7.0 0.00 0.00 0.00 30 1012.6
20260905114435 92 119 0.9 7.0 0.00 0.00 0.00 30 1012.7
20260905114303 93 113 0.9 7.0 0.00 0.00 0.00 30 1012.7
20260905114232 93 120 0.9 7.0 0.00 0.00 0.00 30 1012.7
20260905114052 93 135 0.9 7.0 0.00 0.00 0.00 30 1012.7
20260905113959 93 124 0.0 5.2 0.00 0.00 0.00 31 1012.7
20260905113940 93 125 0.0 5.2 0.00 0.00 0.00 30 1012.7
20260905113547 93 88 0.0 3.5 0.00 0.00 0.00 31 1012.8
20260905113505 93 36 0.0 0.9 0.00 0.00 0.00 31 1012.8
20260905113135 92 109 0.0 0.9 0.00 0.00 0.00 31 1012.8
20260905112804 92 59 0.0 0.9 0.00 0.00 0.00 31 1012.7
20260905112655 92 41 0.0 0.9 0.00 0.00 0.00 31 1012.8
20260905112559 92 132 0.0 5.2 0.00 0.00 0.00 32 1012.8
20260905112227 92 176 0.0 5.2 0.00 0.00 0.00 32 1012.8
20260905112027 92 129 0.0 5.2 0.00 0.00 0.00 31 1012.9
20260905111828 92 102 0.0 5.2 0.00 0.00 0.00 31 1012.9
20260905111805 92 85 0.0 5.2 0.00 0.00 0.00 31 1012.9
20260905111629 92 136 0.0 5.2 0.00 0.00 0.00 31 1012.9
20260905111453 92 170 0.0 3.5 0.00 0.00 0.00 31 1012.9
20260905111418 92 80 0.0 3.5 0.00 0.00 0.00 31 1012.9
20260905111355 92 112 0.0 3.5 0.00 0.00 0.00 31 1012.9
20260905111253 92 128 0.0 3.5 0.00 0.00 0.00 32 1012.9
20260905111158 92 13 0.0 2.6 0.00 0.00 0.00 32 1012.9
20260905110539 92 107 0.0 6.1 0.00 0.00 0.00 32 1012.9
20260905110458 91 74 0.0 6.1 0.00 0.00 0.00 32 1013.0
20260905110035 91 12 0.0 6.1 0.00 0.00 0.00 32 1013.0
20260905105936 91 91 0.9 6.1 0.00 0.00 0.00 31 1013.0
20260905105922 91 90 0.9 6.1 0.00 0.00 0.00 32 1013.0
20260905105425 91 167 0.0 6.1 0.00 0.00 0.00 32 1013.0
20260905105306 91 148 0.0 6.1 0.00 0.00 0.00 32 1013.0
20260905105225 91 203 0.9 6.1 0.00 0.00 0.00 32 1013.0
20260905105027 91 166 0.9 6.1 0.00 0.00 0.00 33 1013.0
20260905104848 91 165 0.0 6.1 0.00 0.00 0.00 32 1012.9
20260905104831 91 166 0.0 6.1 0.00 0.00 0.00 32 1012.9
20260905104743 91 132 0.0 4.3 0.00 0.00 0.00 32 1013.0
20260905104356 91 90 0.0 4.3 0.00 0.00 0.00 32 1013.0
20260905104328 91 143 0.0 4.3 0.00 0.00 0.00 32 1012.9
20260905103823 90 102 0.0 0.9 0.00 0.00 0.00 32 1013.0
20260905103733 90 102 0.0 0.9 0.00 0.00 0.00 32 1013.0
20260905103636 90 98 0.0 0.9 0.00 0.00 0.00 34 1013.0
20260905103326 90 122 0.0 0.9 0.00 0.00 0.00 34 1013.0
20260905102804 90 26 0.9 6.1 0.00 0.00 0.00 35 1013.0
20260905102622 90 26 0.9 6.1 0.00 0.00 0.00 36 1013.0
20260905102521 90 26 0.9 6.1 0.00 0.00 0.00 36 1013.1
20260905102452 90 49 0.9 6.1 0.00 0.00 0.00 36 1013.2
20260905102058 91 119 0.0 6.1 0.00 0.00 0.00 36 1013.1
20260905102002 91 117 0.0 0.9 0.00 0.00 0.00 36 1013.1
20260905101950 91 116 0.0 3.5 0.00 0.00 0.00 36 1013.1
20260905101557 90 86 0.0 3.5 0.00 0.00 0.00 36 1013.2
20260905101526 90 78 0.0 3.5 0.00 0.00 0.00 36 1013.2
20260905101459 90 141 0.0 3.5 0.00 0.00 0.00 36 1013.2
20260905101358 90 187 0.0 3.5 0.00 0.00 0.00 37 1013.4
20260905101306 90 15 0.0 2.6 0.00 0.00 0.00 37 1013.4
20260905101001 89 38 0.0 2.6 0.00 0.00 0.00 37 1013.5
20260905100629 89 164 0.0 3.5 0.00 0.00 0.00 37 1013.6
20260905100549 89 165 0.0 3.5 0.00 0.00 0.00 37 1013.5
20260905100455 89 187 0.0 3.5 0.00 0.00 0.00 37 1013.5
20260905095848 89 162 0.0 3.5 0.00 0.00 0.00 38 1013.6
20260905095223 89 70 0.0 4.3 0.00 0.00 0.00 38 1013.7
20260905095124 89 111 0.0 4.3 0.00 0.00 0.00 38 1013.6
20260905095029 89 60 0.0 4.3 0.00 0.00 0.00 38 1013.7
20260905094715 89 89 0.0 4.3 0.00 0.00 0.00 38 1013.7
20260905094303 88 321 0.0 4.3 0.00 0.00 0.00 39 1013.7
20260905094215 89 341 0.0 4.3 0.00 0.00 0.00 39 1013.7
20260905094113 88 181 0.0 4.3 0.00 0.00 0.00 39 1013.8
20260905094018 88 150 0.0 0.9 0.00 0.00 0.00 39 1013.8
20260905093635 88 119 0.0 4.3 0.00 0.00 0.00 38 1013.9
20260905093541 88 47 0.0 4.3 0.00 0.00 0.00 39 1013.9
20260905093221 88 34 0.0 4.3 0.00 0.00 0.00 39 1013.9
20260905093127 88 69 0.0 4.3 0.00 0.00 0.00 39 1013.9
20260905093018 88 130 0.0 4.3 0.00 0.00 0.00 40 1013.8
20260905092712 87 116 0.0 0.9 0.00 0.00 0.00 40 1013.9
20260905092306 87 130 0.0 2.6 0.00 0.00 0.00 40 1014.0
20260905092212 87 109 0.0 2.6 0.00 0.00 0.00 41 1014.0
20260905092120 87 159 0.0 2.6 0.00 0.00 0.00 40 1014.0
20260905092018 87 336 0.0 4.3 0.00 0.00 0.00 40 1014.0
20260905091616 87 72 0.0 4.3 0.00 0.00 0.00 40 1014.0
20260905091520 87 24 0.0 4.3 0.00 0.00 0.00 40 1014.0
20260905091450 87 103 0.0 4.3 0.00 0.00 0.00 40 1014.1
20260905091016 87 13 0.0 4.3 0.00 0.00 0.00 40 1014.1
20260905090912 87 127 0.9 4.3 0.00 0.00 0.00 40 1014.1
20260905090903 87 104 0.9 4.3 0.00 0.00 0.00 40 1014.1
20260905090417 87 172 0.9 4.3 0.00 0.00 0.00 40 1014.0
20260905090340 87 89 0.9 4.3 0.00 0.00 0.00 40 1014.1
20260905090314 87 88 0.9 4.3 0.00 0.00 0.00 40 1014.1
20260905085810 88 150 0.0 2.6 0.00 0.00 0.00 40 1014.2
20260905085757 88 176 0.0 1.7 0.00 0.00 0.00 40 1014.2
20260905085606 87 130 0.0 1.7 0.00 0.00 0.00 40 1014.0
20260905085406 87 72 0.0 1.7 0.00 0.00 0.00 40 1014.0
20260905085259 87 100 0.0 1.7 0.00 0.00 0.00 40 1014.2
20260905085207 87 122 0.0 1.7 0.00 0.00 0.00 40 1014.1
20260905085008 87 87 0.0 0.0 0.00 0.00 0.00 40 1014.2
20260905084820 87 45 0.0 4.3 0.00 0.00 0.00 40 1014.2
20260905084805 87 45 0.0 4.3 0.00 0.00 0.00 40 1014.2
20260905084721 87 61 0.0 4.3 0.00 0.00 0.00 40 1014.2
20260905084625 87 61 0.0 4.3 0.00 0.00 0.00 40 1014.3
20260905084554 87 60 0.0 4.3 0.00 0.00 0.00 40 1014.3
20260905084222 87 80 0.0 4.3 0.00 0.00 0.00 40 1014.3
20260905084124 87 18 0.0 3.5 0.00 0.00 0.00 41 1014.4
20260905083817 86 63 0.0 3.5 0.00 0.00 0.00 41 1014.3
20260905083723 86 105 0.0 3.5 0.00 0.00 0.00 41 1014.3
20260905083007 86 72 0.0 3.5 0.00 0.00 0.00 41 1014.4
20260905082808 85 6 0.0 3.5 0.00 0.00 0.00 41 1014.3
20260905082752 85 6 0.0 3.5 0.00 0.00 0.00 41 1014.3
20260905082607 85 13 0.0 3.5 0.00 0.00 0.00 41 1014.3
20260905082406 85 13 0.0 3.5 0.00 0.00 0.00 41 1014.3
20260905082252 85 13 0.0 3.5 0.00 0.00 0.00 41 1014.4
20260905082206 85 13 0.0 3.5 0.00 0.00 0.00 41 1014.4
20260905082010 85 16 0.0 3.5 0.00 0.00 0.00 41 1014.4
20260905081807 85 35 0.0 1.7 0.00 0.00 0.00 41 1014.4
20260905081751 85 35 0.0 1.7 0.00 0.00 0.00 41 1014.4
20260905081608 85 17 0.0 1.7 0.00 0.00 0.00 41 1014.4
20260905081408 85 44 0.0 0.9 0.00 0.00 0.00 40 1014.4
20260905081248 85 44 0.0 0.9 0.00 0.00 0.00 40 1014.4
20260905081208 85 40 0.0 0.9 0.00 0.00 0.00 41 1014.4
20260905081008 85 17 0.0 0.9 0.00 0.00 0.00 41 1014.4
20260905080807 85 37 0.0 0.9 0.00 0.00 0.00 41 1014.3
20260905080747 85 356 0.0 0.9 0.00 0.00 0.00 41 1014.3
20260905080607 85 35 0.0 0.9 0.00 0.00 0.00 41 1014.4
20260905080418 85 49 0.0 0.9 0.00 0.00 0.00 41 1014.3
20260905080317 85 23 0.0 4.3 0.00 0.00 0.00 41 1014.4
20260905080221 85 53 0.0 4.3 0.00 0.00 0.00 41 1014.4
20260905075858 85 53 0.0 4.3 0.00 0.00 0.00 41 1014.4
20260905075819 85 49 0.0 4.3 0.00 0.00 0.00 41 1014.3
20260905075443 85 156 0.0 3.5 0.00 0.00 0.00 41 1014.3
20260905075009 84 132 0.0 3.5 0.00 0.00 0.00 41 1014.4
20260905074807 84 130 0.0 3.5 0.00 0.00 0.00 41 1014.3
20260905074741 85 84 0.0 3.5 0.00 0.00 0.00 41 1014.3
20260905074606 85 13 0.0 3.5 0.00 0.00 0.00 41 1014.3
20260905074419 85 26 0.0 3.5 0.00 0.00 0.00 41 1014.3
20260905074247 85 276 0.0 3.5 0.00 0.00 0.00 41 1014.3
20260905074217 85 356 0.0 3.5 0.00 0.00 0.00 41 1014.3
20260905074121 84 185 0.0 0.0 0.00 0.00 0.00 42 1014.2
20260905073753 84 38 0.0 0.0 0.00 0.00 0.00 42 1014.2
20260905073713 84 38 0.0 0.0 0.00 0.00 0.00 42 1014.2
20260905073616 84 21 0.0 0.9 0.00 0.00 0.00 43 1014.2
20260905073539 83 21 0.0 0.9 0.00 0.00 0.00 43 1014.3
20260905072809 83 356 0.0 0.9 0.00 0.00 0.00 42 1014.2
20260905072749 83 351 0.0 0.9 0.00 0.00 0.00 42 1014.2
20260905072709 83 342 0.0 0.9 0.00 0.00 0.00 42 1014.2
20260905072208 83 46 0.0 0.0 0.00 0.00 0.00 43 1014.2
20260905072009 82 46 0.0 0.0 0.00 0.00 0.00 43 1014.2
20260905071810 82 26 0.0 0.0 0.00 0.00 0.00 43 1014.2
20260905071748 82 332 0.0 0.0 0.00 0.00 0.00 43 1014.2
20260905071709 82 332 0.0 0.0 0.00 0.00 0.00 43 1014.2
20260905071206 82 332 0.0 0.9 0.00 0.00 0.00 42 1014.2
20260905071036 82 332 0.0 0.9 0.00 0.00 0.00 42 1014.2
20260905070937 82 332 0.0 0.9 0.00 0.00 0.00 42 1014.2
20260905070918 82 332 0.0 0.9 0.00 0.00 0.00 42 1014.2
20260905070833 82 11 0.0 0.9 0.00 0.00 0.00 42 1014.2
20260905070209 82 38 0.0 0.0 0.00 0.00 0.00 43 1014.2
20260905070008 82 38 0.0 0.0 0.00 0.00 0.00 43 1014.2
20260905065806 82 121 0.0 0.0 0.00 0.00 0.00 42 1014.1
20260905065731 82 121 0.0 0.0 0.00 0.00 0.00 42 1014.1
20260905065606 82 121 0.0 3.5 0.00 0.00 0.00 42 1014.2
20260905065403 82 120 0.0 3.5 0.00 0.00 0.00 42 1014.1
20260905065232 82 120 0.0 3.5 0.00 0.00 0.00 42 1014.2
20260905065206 82 120 0.0 3.5 0.00 0.00 0.00 42 1014.1
20260905065004 82 120 0.0 3.5 0.00 0.00 0.00 41 1014.1
20260905064806 83 121 0.0 3.5 0.00 0.00 0.00 41 1014.1
20260905064747 83 113 0.0 3.5 0.00 0.00 0.00 41 1014.1
20260905064705 83 73 0.0 0.9 0.00 0.00 0.00 41 1014.2
20260905064616 83 122 0.0 0.0 0.00 0.00 0.00 41 1014.1
20260905064533 83 65 0.0 0.0 0.00 0.00 0.00 41 1014.2
20260905063758 83 38 0.0 0.0 0.00 0.00 0.00 41 1014.2
20260905063731 83 31 0.0 0.0 0.00 0.00 0.00 41 1014.1
20260905063559 82 93 0.0 0.0 0.00 0.00 0.00 41 1014.2
20260905063356 82 57 0.0 0.0 0.00 0.00 0.00 41 1014.1
20260905063234 82 57 0.0 0.0 0.00 0.00 0.00 41 1014.2
20260905063154 82 57 0.0 0.0 0.00 0.00 0.00 41 1014.2
20260905062956 82 57 0.0 0.0 0.00 0.00 0.00 42 1014.2
20260905062732 82 53 0.0 0.0 0.00 0.00 0.00 42 1014.2
20260905062550 81 51 0.0 0.0 0.00 0.00 0.00 42 1014.3
20260905062359 81 51 0.0 0.0 0.00 0.00 0.00 42 1014.3
20260905062315 81 51 0.0 0.0 0.00 0.00 0.00 42 1014.3
20260905062255 81 51 0.0 0.0 0.00 0.00 0.00 42 1014.2
20260905062156 81 74 0.0 0.0 0.00 0.00 0.00 42 1014.3
20260905062103 80 84 0.0 0.0 0.00 0.00 0.00 43 1014.3
20260905061344 80 231 0.0 0.0 0.00 0.00 0.00 44 1014.2
20260905061231 80 231 0.0 0.0 0.00 0.00 0.00 44 1014.3
20260905061144 80 231 0.0 0.0 0.00 0.00 0.00 44 1014.3
20260905060947 79 231 0.0 0.0 0.00 0.00 0.00 44 1014.2
20260905060837 79 231 0.0 0.0 0.00 0.00 0.00 44 1014.3
20260905060405 78 231 0.0 0.0 0.00 0.00 0.00 45 1014.4
20260905060327 78 231 0.0 0.0 0.00 0.00 0.00 45 1014.3
20260905060249 78 231 0.0 0.0 0.00 0.00 0.00 45 1014.4
20260905055730 78 231 0.0 0.0 0.00 0.00 0.00 45 1014.5
20260905055543 78 231 0.0 0.0 0.00 0.00 0.00 45 1014.5
20260905055342 78 231 0.0 0.0 0.00 0.00 0.00 45 1014.5
20260905055231 78 231 0.0 0.0 0.00 0.00 0.00 46 1014.4
20260905055143 78 231 0.0 0.0 0.00 0.00 0.00 46 1014.4
20260905055047 77 231 0.0 0.0 0.00 0.00 0.00 46 1014.5
20260905054732 77 231 0.0 0.0 0.00 0.00 0.00 46 1014.5
20260905054538 77 231 0.0 0.0 0.00 0.00 0.00 47 1014.5
20260905054337 77 231 0.0 0.0 0.00 0.00 0.00 47 1014.5
20260905054231 77 231 0.0 0.0 0.00 0.00 0.00 47 1014.5
20260905054137 77 231 0.0 0.0 0.00 0.00 0.00 47 1014.5
20260905053938 77 231 0.0 0.0 0.00 0.00 0.00 48 1014.5
20260905053723 76 231 0.0 0.0 0.00 0.00 0.00 48 1014.4
20260905053537 76 231 0.0 0.0 0.00 0.00 0.00 48 1014.4
20260905053333 76 231 0.0 0.0 0.00 0.00 0.00 48 1014.4
20260905053221 76 231 0.0 0.0 0.00 0.00 0.00 48 1014.4
20260905053131 76 231 0.0 0.0 0.00 0.00 0.00 48 1014.5
20260905052955 76 231 0.0 0.0 0.00 0.00 0.00 48 1014.5
20260905052844 76 231 0.0 0.0 0.00 0.00 0.00 49 1014.4
20260905052805 76 231 0.0 0.0 0.00 0.00 0.00 49 1014.4